9M8CWM-13 Weather Reports


Display with metric or nautical units.
time (UTC)temp
F
wind
direction
speed
MPH
gust
MPH
rain 1hr
in
rain 24hr
in
rain mn
in
humidity
%
barometer
mb
20260506205430 76 0.0 0.0 0.00 0.00 0.00 80
20260506204429 76 0.0 0.0 0.00 0.00 0.00 79
20260506203429 76 0.0 0.0 0.00 0.00 0.00 77
20260506202429 76 0.0 0.0 0.00 0.00 0.00 77
20260506201429 76 0.0 0.0 0.00 0.00 0.00 77
20260506200429 76 0.0 0.0 0.00 0.00 0.00 77
20260506195429 77 0.0 0.0 0.00 0.00 0.00 77
20260506194429 77 0.0 0.0 0.00 0.00 0.00 75
20260506193429 77 0.0 0.0 0.00 0.00 0.00 77
20260506192429 76 0.0 0.0 0.00 0.00 0.00 78
20260506191429 76 0.0 0.0 0.00 0.00 0.00 78
20260506190428 76 0.0 0.0 0.00 0.00 0.00 77
20260506185428 77 0.0 0.0 0.00 0.00 0.00 75
20260506184428 77 0.0 0.0 0.00 0.00 0.00 78
20260506183428 76 0.0 0.0 0.00 0.00 0.00 79
20260506182428 77 0.0 0.0 0.00 0.00 0.00 78
20260506181428 77 0.0 0.0 0.00 0.00 0.00 77
20260506180428 77 0.0 0.0 0.00 0.00 0.00 77
20260506175428 77 0.0 0.0 0.00 0.00 0.00 77
20260506174428 77 0.0 0.0 0.00 0.00 0.00 78
20260506173428 77 0.0 0.0 0.00 0.00 0.00 77
20260506172428 77 0.0 0.0 0.00 0.00 0.00 82
20260506171428 78 0.0 0.0 0.00 0.00 0.00 81
20260506170428 78 0.0 0.0 0.00 0.00 0.00 81
20260506165428 78 0.0 0.0 0.00 0.00 0.00 81
20260506164428 78 0.0 0.0 0.00 0.00 0.00 81
20260506163428 78 0.0 0.0 0.00 0.00 0.00 81
20260506162428 77 0.0 0.0 0.00 0.00 0.00 82
20260506161428 77 0.0 0.0 0.00 0.00 0.00 81
20260506160428 78 0.0 0.0 0.00 0.00 0.00 79
20260506155428 79 0.0 0.0 0.00 0.00 0.00 79
20260506154428 79 0.0 0.0 0.00 0.00 0.00 76
20260506153427 80 0.0 0.0 0.00 0.00 0.00 75
20260506152427 80 0.0 0.0 0.00 0.00 0.00 71
20260506151427 82 0.0 0.0 0.00 0.00 0.00 67
20260506150427 82 0.0 0.0 0.00 0.00 0.00 67
20260506145427 82 0.0 0.0 0.00 0.00 0.00 65
20260506144427 84 0.0 0.0 0.00 0.00 0.00 60
20260506143427 82 0.0 0.0 0.00 0.00 0.00 62
20260506142427 83 0.0 0.0 0.00 0.00 0.00 59
20260506141427 82 0.0 0.0 0.00 0.00 0.00 64
20260506140427 84 0.0 0.0 0.00 0.00 0.00 58
20260506135427 83 0.0 0.0 0.00 0.00 0.00 58
20260506134427 83 0.0 0.0 0.00 0.00 0.00 57
20260506133427 83 0.0 0.0 0.00 0.00 0.00 58
20260506132427 83 0.0 0.0 0.00 0.00 0.00 59
20260506131427 82 0.0 0.0 0.00 0.00 0.00 61
20260506130427 83 0.0 0.0 0.00 0.00 0.00 57
20260506125427 84 0.0 0.0 0.00 0.00 0.00 55
20260506124427 84 0.0 0.0 0.00 0.00 0.00 55
20260506123427 84 0.0 0.0 0.00 0.00 0.00 52
20260506122427 84 0.0 0.0 0.00 0.00 0.00 53
20260506121427 84 0.0 0.0 0.00 0.00 0.00 53
20260506120426 84 0.0 0.0 0.00 0.00 0.00 54
20260506115426 84 0.0 0.0 0.00 0.00 0.00 56
20260506114426 83 0.0 0.0 0.00 0.00 0.00 57
20260506113426 83 0.0 0.0 0.00 0.00 0.00 57
20260506112426 84 0.0 0.0 0.00 0.00 0.00 52
20260506111426 84 0.0 0.0 0.00 0.00 0.00 51
20260506110426 84 0.0 0.0 0.00 0.00 0.00 49
20260506105426 84 0.0 0.0 0.00 0.00 0.00 48
20260506104426 85 0.0 0.0 0.00 0.00 0.00 44
20260506103427 86 0.0 0.0 0.00 0.00 0.00 42
20260506102426 87 0.0 0.0 0.00 0.00 0.00 41
20260506101426 88 0.0 0.0 0.00 0.00 0.00 40
20260506100426 87 0.0 0.0 0.00 0.00 0.00 42
20260506095426 85 0.0 0.0 0.00 0.00 0.00 45
20260505214427 76 0.0 0.0 0.00 0.00 0.00 75
20260505213327 76 0.0 0.0 0.00 0.00 0.00 75
20260505212327 77 0.0 0.0 0.00 0.00 0.00 73
20260505211327 77 0.0 0.0 0.00 0.00 0.00 75
20260505210327 76 0.0 0.0 0.00 0.00 0.00 77